Zurück zum Katalog

STARLINK-36722

AktivKommunikationVLEO
NORAD 67917·PAYLOAD·🇺🇸 United States

Gestartet Feb 22, 2026 von Vandenberg Space Force Base

Loading…

Nächste Überflüge (nächste 24 Stunden)

TLE

AktuellSource: CelesTrak SupGP

Epoche: Sep 15, 2026, 03:48 UTC

1 67917C 26036P   26258.15881944 -.00020678  00000+0 -74923-3 0  2580
2 67917  43.0005 254.9198 0001042 254.5758  64.2541 15.27576780    16

Verfolge STARLINK-36722 in Echtzeit mit AllMySat

Download on the App Store